Regional Weather Roundup
Issued by NWS

Home | Current Version | Previous Version | Text Only | Print | Product List | Glossary Off
Versions: 1 2 3 4 5 6 7 8 9 10 11 12 13 14 15 16 17 18 19 20 21 22 23 24 25 26 27 28 29 30 31 32 33 34 35 36 37 38 39 40 41 42 43 44 45 46 47 48 49 50

146
ASUS43 KLMK 160002
RWRKY
KENTUCKY REGIONAL WEATHER ROUNDUP
NATIONAL WEATHER SERVICE LOUISVILLE KY
700 PM EST SUN JAN 15 2017

NOTE "FAIR" INDICATES FEW OR NO CLOUDS BELOW 12,000 FEET
WITH NO SIGNIFICANT WEATHER AND/OR OBSTRUCTIONS TO VISIBILITY.

KYZ001>023-026-027-061>063-070>075-160100-
WESTERN AND SOUTH CENTRAL KENTUCKY

CITY           SKY/WX    TMP DP  RH WIND       PRES   REMARKS
PADUCAH        CLOUDY    41  39  93 E6        30.27S FOG
HENDERSON      CLOUDY    41  36  81 E6        30.30S
OWENSBORO      CLOUDY    41  40  96 E3        30.31R FOG
HOPKINSVILLE   NOT AVBL
BOWLING GREEN  CLOUDY    46  44  93 NE3       30.30R FOG
GLASGOW        NOT AVBL
$$

KYZ024-025-028>034-038-045-046-053-160100-
NORTH CENTRAL KENTUCKY

CITY           SKY/WX    TMP DP  RH WIND       PRES   REMARKS
LOUISVILLE/SDF LGT RAIN  41  38  89 E6        30.32S FOG
LOUISVILLE/LOU LGT RAIN  40  38  93 NE5       30.32S FOG
FORT KNOX      NOT AVBL
$$

KYZ035>037-039>044-047>052-055>060-089>105-160100-
NORTHEAST KENTUCKY

CITY           SKY/WX    TMP DP  RH WIND       PRES   REMARKS
LEXINGTON      LGT RAIN  41  39  93 E5        30.31R
COVINGTON      LGT RAIN  37  36  96 NE7       30.32S FOG     WCI  32
FRANKFORT      LGT RAIN  40  37  89 NE6       30.31R
$$

KYZ054-064>069-076>088-106>120-160100-
SOUTHEAST KENTUCKY

CITY           SKY/WX    TMP DP  RH WIND       PRES   REMARKS
JACKSON        LGT RAIN  39  38  96 CALM      30.31R VSB 1
LONDON         CLOUDY    44  42  93 NE5       30.29R FOG
SOMERSET       CLOUDY    45  45 100 CALM      30.31R
MIDDLESBORO    CLOUDY    54  53  96 CALM      30.28R
MONTICELLO     CLOUDY    47  46  97 NW7       30.31R FOG
$$





USA.gov is the U.S. government's official web portal to all federal, state and local government web resources and services.